User: anonymous   Login
Location: Newark
(43.0000°N, 1.6781°W)
Time: 08:12:46
(UTC+00:00)
Language:

XW-2D - Orbit

View from above orbital plane
View from above orbital plane
View from above satellite
View from above satellite

Ground track
Ground track

The orbit data is extracted from the following two-line orbital elements,

1 40907U 15049J   22330.83062794  .00005667  00000-0  25136-3 0  9992
2 40907  97.4950 333.3179 0013541 139.7189 342.3968 15.21914346397647
Epoch (UTC): 26 November 2022 19:56:06
Eccentricity: 0.0013541
inclination: 97.4950°
perigee height: 491 km
apogee height: 509 km
right ascension of ascending node: 333.3179°
argument of perigee: 139.7189°
revolutions per day: 15.21914346
mean anomaly at epoch: 342.3968°
orbit number at epoch: 39764

The dashed part of the orbit path shows where the satellite is in the earth's shadow,  

DLR